User: anonymous   Login
Location: Zagreb
(45.8000°N, 16.0000°E)
Time: 18:54:48
(UTC+02:00)
Language:

Courier 1B Rocket - Orbit

View from above orbital plane
View from above orbital plane
View from above satellite
View from above satellite

Ground track
Ground track

The orbit data is extracted from the following two-line orbital elements,

1    59U 60013B   20221.93017783  .00000095  00000-0  13091-4 0  9991
2    59  28.2493 308.6483 0189312   6.6262 353.6734 13.52978284954224
Epoch (UTC): 08 August 2020 22:19:27
Eccentricity: 0.0189312
inclination: 28.2493°
perigee height: 920 km
apogee height: 1202 km
right ascension of ascending node: 308.6483°
argument of perigee: 6.6262°
revolutions per day: 13.52978284
mean anomaly at epoch: 353.6734°
orbit number at epoch: 95422

The dashed part of the orbit path shows where the satellite is in the earth's shadow,  

DLR